Location: ????
(33.1659°N, 35.6604°E)
Time: 03:59:16
(UTC+00:00)

SPOT 3 Rocket - Pass Details

Date: 20 September 2019
Orbit: 780 x 794 km, 98.8° (Epoch: 19 October)

Event Time Altitude Azimuth Distance (km) Brightness Sun altitude
Exits shadow 17:29:55 57° 149° (SSE) 913 3.6 -24.0°
Maximum altitude 17:30:58 80° 75° (ENE) 795 3.4 -24.2°
Drops below altitude 10° 17:36:07 10° 350° (N) 2,337 6.3 -25.2°
Sets 17:38:26 0° 349° (N) 3,269 7.2 -25.6°
